7 * 24
多渠道服务支持
STARLINK-36919(NORAD编号68053)是美国太空探索技术公司(SpaceX)“星链”星座旗下的一颗近地轨道卫星,承担全球宽带互联网接入服务任务,可支持流媒体、在线游戏、高清视频通话等应用。作为星链批量生产的标准卫星,它采用紧凑平板设计,能通过猎鹰9号火箭密集发射,部分搭载光学星间激光链路技术,提升低延迟网络传输效率。这类卫星部署在数百公里高度的近地轨道,通过批量组网实现全球覆盖,为偏远地区、移动场景提供互联网接入,是目前全球规模最大的卫星互联网星座组成部分。
美国
(US)
| 数据来源 | 国际轨道数据 |
| 星历时间: | 2026-07-27T08:40:35+0800 1天前 查看轨道信息 |
| 半长轴: | 6840.83km |
| 偏心率: | 0.0001482 |
| 轨道倾角: | 53.160° |
| 近地点辐角 | 105.040° |
| 升交点赤经 | 121.088° |
| 平近点角 | 255.077° |
| 近地点: | 461.679km |
| 远地点: | 463.707km |
| 周期: | 93.848分钟 |
| 每日圈数: | 15.344035 |